User: anonymous   Login
Location: Unspecified
(0.0000°N, 0.0000°E)
Time: 01:54:34
(UTC+02:00)
Language:

H-2A R/B - Orbit

View from above orbital plane
View from above orbital plane
View from above satellite
View from above satellite

Ground track
Ground track

The orbit data is extracted from the following two-line orbital elements,

1 26899U 01038B   15089.44254709  .00004497  00000-0  14149-2 0  9999
2 26899 028.3777 032.8444 7146949 014.0308 125.7296 02.44702555116522
Epoch (UTC): 30 March 2015 10:37:16
Eccentricity: 0.7146949
inclination: 28.3777°
perigee height: 258 km
apogee height: 33508 km
right ascension of ascending node: 32.8444°
argument of perigee: 14.0308°
revolutions per day: 2.44702555
mean anomaly at epoch: 125.7296°
orbit number at epoch: 11652

The dashed part of the orbit path shows where the satellite is in the earth's shadow,  

DLR